User: anonymous   Login
Location: Caltech
(34.1382°N, 118.1253°W)
Time: 19:56:59
(UTC-07:00)
Language:

OPAL - Orbit

View from above orbital plane
View from above orbital plane
View from above satellite
View from above satellite

Ground track
Ground track

The orbit data is extracted from the following two-line orbital elements,

1 26063U 00004C   15110.54413432  .00000194  00000-0  85477-4 0  9994
2 26063 100.2245 318.5547 0036726 013.3267 346.8875 14.36524852798153
Epoch (UTC): 20 April 2015 13:03:33
Eccentricity: 0.0036726
inclination: 100.2245°
perigee height: 744 km
apogee height: 796 km
right ascension of ascending node: 318.5547°
argument of perigee: 13.3267°
revolutions per day: 14.36524852
mean anomaly at epoch: 346.8875°
orbit number at epoch: 79815

The dashed part of the orbit path shows where the satellite is in the earth's shadow,  

DLR